Regional Weather Roundup
Issued by NWS

Home | Current Version | Previous Version | Graphics & Text | Print | Product List | Glossary Off
Versions: 1 2 3 4 5 6 7 8 9 10 11 12 13 14 15 16 17 18 19 20 21 22 23 24 25 26 27 28 29 30 31 32 33 34 35 36 37 38 39 40 41 42 43 44 45 46 47 48 49 50

000
ASUS43 KMKX 291211
RWRWI

WISCONSIN REGIONAL WEATHER ROUNDUP
NATIONAL WEATHER SERVICE MILWAUKEE/SULLIVAN WI
700 AM CDT SAT AUG 29 2015

NOTE: "FAIR" INDICATES FEW OR NO CLOUDS BELOW 12,000 FEET WITH NO
SIGNIFICANT WEATHER AND/OR OBSTRUCTIONS TO VISIBILITY.

WIZ001-002-006>008-014>016-023>028-291300-
NORTHWEST WISCONSIN

CITY           SKY/WX    TMP DP  RH WIND       PRES   REMARKS
SUPERIOR ARPT  CLOUDY    59  57  96 SW6       30.03R
6HR MIN TEMP:  57; 6HR MAX TEMP:  62; 6HR PCP:  0.05;

ASHLAND        CLOUDY    57  57 100 W5        30.00S
6HR MIN TEMP:  57; 6HR MAX TEMP:  63; 6HR PCP:  0.07;

HAYWARD        CLOUDY    57  55  93 SW8       30.03F
6HR MIN TEMP:  54; 6HR MAX TEMP:  60; 6HR PCP:  0.01;

SIREN          CLOUDY    55  54  94 S6        30.05F
6HR MIN TEMP:  54; 6HR MAX TEMP:  58;

CUMBERLAND     PTCLDY    54  52  94 CALM      30.08S
RICE LAKE      PTCLDY    54  53  95 CALM      30.09R
6HR MIN TEMP:  51; 6HR MAX TEMP:  56;

CHETEK         CLOUDY    56  55  95 E5        30.07F
LADYSMITH      PTCLDY    53  52  96 SE6       30.08F
6HR MIN TEMP:  51; 6HR MAX TEMP:  55;

EAU CLAIRE     CLOUDY    56  54  93 NE7       30.07R FOG
6HR MIN TEMP:  52; 6HR MAX TEMP:  56;

MENOMONIE      CLOUDY    56  56  97 NE5       30.08R FOG
6HR MIN TEMP:  52; 6HR MAX TEMP:  56;

NEW RICHMOND   MOCLDY    54  54 100 E5        30.07R
6HR MIN TEMP:  52; 6HR MAX TEMP:  55;

OSCEOLA        MOCLDY    55  55 100 E3        30.10R
6HR MIN TEMP:  52; 6HR MAX TEMP:  56;

$$

WIZ003>005-009-010-017-018-291300-
NORTH CENTRAL WISCONSIN

CITY           SKY/WX    TMP DP  RH WIND       PRES   REMARKS
MANITOWISH WTR PTCLDY    55  55 100 S10       30.02F
6HR MIN TEMP:  51; 6HR MAX TEMP:  60;

ARBOR VITAE    PTCLDY    57  56  95 S8        30.04F
6HR MIN TEMP:  52; 6HR MAX TEMP:  59;

WOODRUFF       PTCLDY    57  56  95 S8        30.04F
6HR MIN TEMP:  52; 6HR MAX TEMP:  59;

RHINELANDER    MOCLDY    54  52  93 S6        30.09F
6HR MIN TEMP:  49; 6HR MAX TEMP:  60;

EAGLE RIVER    CLEAR     54  54 100 CALM      30.07F
6HR MIN TEMP:  51; 6HR MAX TEMP:  60;

LAND O LAKES   CLEAR     56  54  93 S7        30.06F
6HR MIN TEMP:  55; 6HR MAX TEMP:  62;

PHILLIPS       CLOUDY    50  50 100 S6        30.07F
6HR MIN TEMP:  49; 6HR MAX TEMP:  56;

TOMAHAWK       CLOUDY    52  51  97 CALM      30.10F FOG
6HR MIN TEMP:  47; 6HR MAX TEMP:  55;

MEDFORD        CLOUDY    54  54 100 E6        30.09S FOG
6HR MIN TEMP:  50; 6HR MAX TEMP:  54;

MERRILL        CLOUDY    55  55 100 CALM      30.12R
6HR MIN TEMP:  52; 6HR MAX TEMP:  59;

$$

WIZ029-030-035-036-043>047-291300-
CENTRAL WISCONSIN

CITY           SKY/WX    TMP DP  RH WIND       PRES   REMARKS
WAUSAU         CLOUDY    58  55  90 CALM      30.08R
6HR MIN TEMP:  56; 6HR MAX TEMP:  59;

MOSINEE        CLOUDY    57  57 100 CALM      30.10R
MARSHFIELD     CLOUDY    59  55  87 NE5       30.08R FOG
6HR MIN TEMP:  56; 6HR MAX TEMP:  59;

STEVENS POINT  CLOUDY    57  56  98 E5        30.08S FOG
6HR MIN TEMP:  54; 6HR MAX TEMP:  57; 6HR PCP:  0.07;

WAUPACA        CLOUDY    60  60  97 N3        30.08S FOG
6HR MIN TEMP:  59; 6HR MAX TEMP:  60; 6HR PCP:  0.03;

WAUTOMA        CLOUDY    60  60 100 E7        30.07R FOG
6HR MIN TEMP:  57; 6HR MAX TEMP:  60; 6HR PCP:  0.11;

WISC RAPIDS    LGT RAIN  59  56  89 E7        30.07S FOG
6HR MIN TEMP:  57; 6HR MAX TEMP:  59; 6HR PCP:  0.08;

CAMP DOUGLAS   CLOUDY    58  58 100 NE3       30.04R
6HR MIN TEMP:  57; 6HR MAX TEMP:  58; 6HR PCP:  0.02;

$$

WIZ011>013-019>022-031-037>040-048>050-291300-
NORTHEAST WISCONSIN

CITY           SKY/WX    TMP DP  RH WIND       PRES   REMARKS
ANTIGO         CLOUDY    55  55  99 CALM      30.10S
SHAWANO        DRIZZLE   60  58  93 CALM      30.09S
6HR MIN TEMP:  59; 6HR MAX TEMP:  61; 6HR PCP:  0.03;

OCONTO         CLOUDY    57  57 100 CALM      30.09S
6HR MIN TEMP:  56; 6HR MAX TEMP:  60;

STURGEON BAY   CLOUDY    59  55  88 S5        30.12R
6HR MIN TEMP:  57; 6HR MAX TEMP:  61;

GREEN BAY      CLOUDY    60  59  96 NE3       30.09S FOG
6HR MIN TEMP:  58; 6HR MAX TEMP:  60; 6HR PCP:  0.04;

MANITOWOC      CLOUDY    56  56 100 MISG      30.10R
6HR MIN TEMP:  56; 6HR MAX TEMP:  59;

APPLETON       CLOUDY    59  59 100 VRB5      30.07R FOG
CLINTONVILLE   DRIZZLE   57  55  94 NE3       30.08S
OSHKOSH        CLOUDY    60  58  92 E8        30.07R
6HR MIN TEMP:  57; 6HR MAX TEMP:  60; 6HR PCP:  0.11;

$$

WIZ032>034-041-042-053>061-291300-
SOUTHWEST WISCONSIN

CITY           SKY/WX    TMP DP  RH WIND       PRES   REMARKS
LA CROSSE      CLOUDY    61  58  90 N3        30.04R
6HR MIN TEMP:  60; 6HR MAX TEMP:  61;

SPARTA         CLOUDY    59  57  94 NE3       30.05R
6HR MIN TEMP:  58; 6HR MAX TEMP:  59;

VIROQUA        CLOUDY    58  58 100 NE6       30.02R
6HR MIN TEMP:  58; 6HR MAX TEMP:  59; 6HR PCP:  0.01;

BOSCOBEL       CLOUDY    63  62  97 NE5       30.00R FOG
6HR MIN TEMP:  63; 6HR MAX TEMP:  63; 6HR PCP:  0.16;

PRAIRIE DU CHI CLOUDY    63  62  96 NW3       29.99R
6HR MIN TEMP:  63; 6HR MAX TEMP:  63; 6HR PCP:  0.09;

PLATTEVILLE    CLOUDY    64  64  99 CALM      29.98S
6HR MIN TEMP:  64; 6HR MAX TEMP:  65; 6HR PCP:  0.26;

$$

WIZ056-057-062-063-064-067-068-291300-
SOUTH CENTRAL WISCONSIN

CITY           SKY/WX    TMP DP  RH WIND       PRES   REMARKS
REEDSBURG      DRIZZLE   59  59  99 NE5       30.01R
6HR MIN TEMP:  56; 6HR MAX TEMP:  59; 6HR PCP:  0.11;

BARABOO/DELLS  DRIZZLE   60  58  95 E8        30.02R
6HR MIN TEMP:  56; 6HR MAX TEMP:  60; 6HR PCP:  0.18;

LONE ROCK      CLOUDY    63  62  97 NE3       30.00R FOG
6HR MIN TEMP:  62; 6HR MAX TEMP:  63; 6HR PCP:  0.17;

MINERAL POINT  CLOUDY    64  63  94 CALM      29.99S FOG
MADISON        DRIZZLE   62  60  93 E6        30.01R FOG
6HR MIN TEMP:  60; 6HR MAX TEMP:  63; 6HR PCP:  0.88;

MIDDLETON      CLOUDY    64  64 100 E5        30.01S
6HR MIN TEMP:  62; 6HR MAX TEMP:  64; 6HR PCP:  0.81;

WATERTOWN      DRIZZLE   60  60 100 E8        30.03S
6HR MIN TEMP:  59; 6HR MAX TEMP:  61; 6HR PCP:  0.95;

MONROE         CLOUDY    61  61 100 S7        29.99S FOG
JANESVILLE     NOT AVBL
$$

WIZ051-052-058>065-066-070>072-291300-
SOUTHEAST WISCONSIN

CITY           SKY/WX    TMP DP  RH WIND       PRES   REMARKS
MILWAUKEE      RAIN      57  56  96 NE5       30.07R FOG
6HR MIN TEMP:  57; 6HR MAX TEMP:  64; 6HR PCP:  0.68;

WAUKESHA       DRIZZLE   57  57 100 E3        30.07R
MILWAUKEE/TIMM DRIZZLE   55  54  94 E7        30.07S
RACINE         LGT RAIN  64  61  90 E3        30.09R FOG
6HR MIN TEMP:  63; 6HR MAX TEMP:  65; 6HR PCP:  0.33;

BURLINGTON     RAIN      61  60  97 SE5       30.05S
6HR MIN TEMP:  61; 6HR MAX TEMP:  63; 6HR PCP:  0.72;

KENOSHA        TSTM      63  61  93 S5        30.07R FOG
6HR MIN TEMP:  64; 6HR MAX TEMP:  66; 6HR PCP:  0.47;

FOND DU LAC    LGT RAIN  60  59  96 E6        30.05F
6HR MIN TEMP:  58; 6HR MAX TEMP:  60; 6HR PCP:  0.28;

SHEBOYGAN      CLOUDY    57  56  96 E8        30.07F FOG
6HR MIN TEMP:  56; 6HR MAX TEMP:  59; 6HR PCP:  0.90;

WEST BEND      DRIZZLE   57  55  94 E8        30.07S
JUNEAU         DRIZZLE   58  58  98 E10       30.05S
6HR MIN TEMP:  57; 6HR MAX TEMP:  58; 6HR PCP:  0.01;

$$

LSZ147-162-291300-
LAKE SUPERIOR

STATION/POSITION TIME  TEMP    WIND        PRES    WAVE
                       AIR SEA DIR/SP/G            HT/PER
                 (UTC) (F)     (DEG/KT/KT) (MB)    (FT/S)
W MID LAKE BUOY  1150   56 54  270/ 14/ 16 1015.0R   3/ 4
DEVILS ISLAND    1200   57     260/ 17/ 21 1015.6R
PORT WING        1101   60     240/  7/ 14 1016.3R
SAXON HARBOR     1140   60     190/  8/ 14 1013.9F
$$

LMZ867-665-643>646-291300-
LAKE MICHIGAN

STATION/POSITION TIME  TEMP    WIND        PRES    WAVE
                       AIR SEA DIR/SP/G            HT/PER



USA.gov is the U.S. government's official web portal to all federal, state and local government web resources and services.